THOR ABLESTAR DEB, 145

Orbit data source: Space-Track

THOR ABLESTAR DEB, 145 is space debris in LEO originally from a launch on Thu, 29 Jun 1961 UTC launched from the Air Force Eastern Test Range (AFETR). Debris objects in space refer to the collection of defunct objects orbiting the Earth. Examples of debris include non-operational satellites, rocket bodies, and fragments generated from explosions, collisions, or faulty payload assembly.

Loading next visibility...
Identifier
145, 1961-015AF
Orbit
LEO
Country
Flag of USUS
Related business
Manufacturer
Unknown
Mission
Spacecraft
Bus & Motor
Unknown
Mass
Unknown
Launch date (UTC)
1961-06-29 (64 years ago)
Launch vehicle
Unknown
Launch site
Air Force Eastern Test Range (AFETR)
Object type
Payload
Rocket body
Debris
Shape & HBR
Unknown shape, 0.4 m
Radar Cross Section
Medium (>0.1 m² and <1 m²)

Expand to show TLE details & history
Last TLE update: 7 hours ago

TLE from 7 hours ago
0 THOR ABLESTAR DEB
1 00145U 61015AF  25309.96544341  .00000407  00000-0  30716-3 0  9999
2 00145  66.9263 216.3601 0056516 102.9033 257.8374 14.03099226285393
Epoch: 2025-11-05T23:10Z
TLE epoch observation values (Epoch: 2025-11-05T23:10:14.310Z)
Latitude
-0.00003°
Longitude
-176.63008°
Altitude
894.049 km
Speed
7.401 km/s
True Right ascension
14h 25m 26s
True Declination
0° 00' 00"
Sunlit
Object was in daylight at epoch
Visualization orbit readout
Latitude
Unknown
Longitude
Unknown
Altitude
Unknown
Speed
Unknown
Apparent Right ascension
Unknown
Apparent Declination
Unknown
Sunlit
N/A
Visualization observer readout
Local Sidereal Time
02:07:22
Azimuth
Unknown
Elevation
Unknown
Doppler factor
Unknown
Orbital elements
Apogee altitude
922.481 km
Perigee altitude
840.424 km
Semi-major axis
7,259.589 km
Eccentricity
0.00565
Inclination
66.9263°
RAAN
216.3601°
Arg. of periapsis
102.9033°
True anomaly
257.20526°
Mean anomaly
257.8374°
Eccentric anomaly
257.52124°
Mean motion
3.50893 °/min
Orbital period
102.6 mins
BSTAR
0.00030716
Loading maneuver chart data...
Computing Atmospheric mass density...
Loading historical data...
Loading historical data...
Loading historical data...
Loading historical data...
Loading historical data...
Loading historical data...
Loading historical data...

Documentation

Showing up to 5 results
|